Regional Weather Roundup
Issued by NWS Northern Indiana

Home | Current Version | Previous Version | Graphics & Text | Print | Product List | Glossary On
Versions: 1 2 3 4 5 6 7 8 9 10 11 12 13 14 15 16 17 18 19 20 21 22 23 24 25 26 27 28 29 30 31 32 33 34 35 36 37 38 39 40 41 42 43 44 45 46 47 48 49 50
772
ASUS43 KIWX 272201
RWRIWX

KIWX WEATHER ROUNDUP
NATIONAL WEATHER SERVICE NORTHERN INDIANA
600 PM EDT TUE JUN 27 2017

NOTE: "FAIR" INDICATES FEW OR NO CLOUDS BELOW 12,000 FEET WITH NO
SIGNIFICANT WEATHER AND/OR OBSTRUCTIONS TO VISIBILITY.

* THESE STATIONS ARE NOT UNDER NWS QUALITY CONTROL. THEY ALSO MAY NOT
  REPORT WEATHER SUCH AS PRECIPITATION OR FOG.

INZ001>027-272300-
NORTHERN INDIANA

CITY           SKY/WX    TMP DP  RH WIND       PRES   REMARKS
GARY*          MOSUNNY   73  43  33 NE8       30.07F
MICHIGAN CITY* SUNNY     72  43  35 CALM      30.09F
KNOX*          SUNNY     72  36  26 NW6       30.08S
SOUTH BEND     SUNNY     71  43  36 NW8       30.09F
ELKHART*       SUNNY     72  41  33 NW6       30.08F
GOSHEN         MOSUNNY   73  41  31 NW13      30.08S
MONTICELLO*    MOSUNNY   72  43  34 W6        30.09F
FORT WAYNE     MOSUNNY   72  47  40 W12       30.08F
PERU/GRISSOM   PTSUNNY   72  50  45 W8        30.08F

$$
INZ028>050-272300-
CENTRAL INDIANA

CITY           SKY/WX    TMP DP  RH WIND       PRES   REMARKS
LAFAYETTE      SUNNY     72  47  40 S3        30.09F
KOKOMO*        MOSUNNY   71  47  42 VRB5      30.11F
MUNCIE*        MOSUNNY   73  45  36 NW5       30.11S
INDIANAPOLIS   MOSUNNY   73  47  39 VRB3      30.10F

$$
MIZ043>046-050>051-056>058-064>065-071>073-077>080-272300-
SOUTHWEST LOWER MICHIGAN

CITY           SKY/WX    TMP DP  RH WIND       PRES   REMARKS
BATTLE CREEK   MOSUNNY   73  44  35 W12G21    30.07F
BENTON HARBOR  SUNNY     70  42  36 MISG      30.08F
COLDWATER*     MOSUNNY   71  40  33 NW8G17    30.06F
HILLSDALE*     MOSUNNY   72  43  35 W13G18    30.06S
HOLLAND        SUNNY     71  47  42 W9        30.07F
GRAND RAPIDS   MOSUNNY   71  47  42 W14       30.05F
KALAMAZOO      MOSUNNY   72  42  34 NW13G20   30.07S
STURGIS*       MOSUNNY   70  45  40 NW8G16    30.07S
THREE RIVERS*  FAIR      71  42  34 W15       30.07F

$$
OHZ001>008-015>018-024>025-272300-
NORTHWEST OHIO

CITY           SKY/WX    TMP DP  RH WIND       PRES   REMARKS
DEFIANCE       PTSUNNY   70  45  40 VRB7      30.06F
FINDLAY        MOSUNNY   70  44  39 W5        30.07F
TOLEDO EXPRESS MOSUNNY   72  46  39 W7        30.04F
TOLEDO METCALF SUNNY     73  46  38 W13       30.06F
LIMA           MOSUNNY   69  47  45 W9        30.09F

$$
AND FOR LAKE MICHIGAN COASTAL AND OPEN LAKE BUOY OBSERVATIONS

STATION/POSITION TEMP    WIND        PRES    VSBY  WAVE
                 AIR SEA DIR/SP/G                  HT/PER
                 (F)     (DEG/KT/KT) (MB)    (MI)  (FT/S)
CALUMET HARBOR    67      80/  8/ 12 1017.8F
MICHIGAN CITY     67      40/  5/  6   N/A
BURNS HARBOR      70      60/  9/ 13 1019.0F
SOUTH LAKE BUOY   63 62  170/ 10/ 12 1018.3          1
4 MI NW BRIDGMAN  67 70  190/  2/  4 1018.7F         1/ 4
MICHIGAN CITY     67 67  100/  4/  6   N/A           1

$$
&&




USA.gov is the U.S. government's official web portal to all federal, state and local government web resources and services.